{"data":{"norad_id":65321,"intl_designator":"2025-188G","name":"LEAP-1","alt_names":[],"object_type":"PAYLOAD","status":"ACTIVE","operator":null,"country":"IND","launch_date":"2025-08-26","launch_site_code":"AFWTR","launch_vehicle":null,"mission":null,"orbit_class":"UNKNOWN","rcs_meters":null,"size_class":null,"mass_kg":null,"dimensions":null,"purposes":[],"wikipedia_slug":null,"has_3d_model":false,"image_url":null,"decayed_at":null,"tle_current":{"epoch":"2026-09-20T21:52:10.977888Z","epoch_age_seconds":123216,"freshness":"FRESH","line1":"1 65321U 25188G   26263.91123817  .00001156  00000+0  11991-3 0  9998","line2":"2 65321  97.7289 336.4869 0001773 233.7292 126.3763 14.91879657 58127","mean_motion":14.91879657,"eccentricity":0.0001773,"inclination_deg":97.7289,"raan_deg":336.4869,"arg_perigee_deg":233.7292,"mean_anomaly_deg":126.3763,"bstar":0.00011991,"rev_number":5812,"period_min":96.522530704365,"perigee_km":590.83906171293,"apogee_km":593.31069884568,"semimajor_km":6970.2118802793,"source":"CELESTRAK","updated_at":"2026-09-21T09:00:15.250721Z"}}}